Weather History for Lee's Summit, MO

Change the Weather History Date:

Monday, April 8, 2013

  Actual Average (KMKC) Record (KMKC)
Temperature  
Mean Temperature 62 °F -  
Max Temperature 73 °F 61 °F 82 °F (2001)
Min Temperature 53 °F 42 °F 24 °F (2007)
Degree Days  
Heating Degree Days 3    
Growing Degree Days 12 (Base 50)    
Moisture  
Dew Point 57 °F    
Average Humidity 79    
Maximum Humidity 94    
Minimum Humidity 65    
Precipitation  
Precipitation 0.67 in - - ()
Sea Level Pressure  
Sea Level Pressure 29.71 in    
Wind  
Wind Speed 11 mph (SSW)    
Max Wind Speed 20 mph    
Max Gust Speed 29 mph    
Visibility 9 miles    
Events Rain , Thunderstorm    
Averages and records for this station are not official NWS values.
T = Trace of Precipitation, MM = Missing Value Source: NWS Daily Summary

Daily Weather History Graph

Daily Weather History Graph

Search for Another Location

Airport:

Trip Planner

Search our weather history database for the weather conditions in past years. The results will help you decide how hot, cold, wet, or windy it might be!

Date:

Astronomy

Apr. 08, 2013 Rise Set
Actual Time 6:50 AM CDT 7:48 PM CDT
Civil Twilight 6:23 AM CDT 8:15 PM CDT
Nautical Twilight 5:51 AM CDT 8:47 PM CDT
Astronomical Twilight 5:17 AM CDT 9:21 PM CDT
Moon 5:40 AM CDT (4/8) 6:23 PM CDT (4/8)
Length of Visible Light 13h 51m
Length of Day
12h 57m
Waning Crescent, 3% of the Moon is Illuminated
Apr 8
Waning Crescent
Apr 10
New
Apr 18
First Quarter
Apr 25
Full
May 2
Last Quarter

Hourly Weather History & Observations

Time (CDT) Temp. Dew Point Humidity Pressure Visibility Wind Dir Wind Speed Gust Speed Precip Events Conditions
12:00 AM 59.0 °F 55.4 °F 88% 29.70 in 10.0 mi South 8.1 mph - N/A   Overcast
12:53 AM 60.1 °F 55.9 °F 86% 29.68 in 10.0 mi SSW 16.1 mph 20.7 mph N/A   Overcast
1:06 AM 60.8 °F 55.4 °F 82% 29.70 in 6.0 mi SW 16.1 mph - 0.05 in Rain , Thunderstorm Light Rain
1:28 AM 57.2 °F 53.6 °F 88% 29.72 in 1.2 mi WNW 13.8 mph 23.0 mph 0.35 in Rain , Thunderstorm Rain
1:31 AM 55.4 °F 53.6 °F 94% 29.72 in 0.8 mi WSW 16.1 mph 24.2 mph 0.48 in Rain , Thunderstorm Heavy Thunderstorms and Rain
1:33 AM 55.4 °F 53.6 °F 94% 29.73 in 0.8 mi WSW 19.6 mph 28.8 mph 0.54 in Rain , Thunderstorm Heavy Thunderstorms and Rain
1:38 AM 55.4 °F 53.6 °F 94% 29.71 in 1.0 mi SW 19.6 mph 28.8 mph 0.67 in Rain , Thunderstorm Heavy Thunderstorms and Rain
1:45 AM 53.6 °F 51.8 °F 94% 29.71 in 4.0 mi SW 12.7 mph 23.0 mph 0.67 in Rain , Thunderstorm Light Thunderstorms and Rain
1:53 AM 55.0 °F 51.1 °F 86% 29.70 in 10.0 mi WSW 15.0 mph 20.7 mph 0.67 in Thunderstorm Thunderstorm
2:12 AM 55.4 °F 53.6 °F 94% 29.72 in 10.0 mi WSW 8.1 mph - N/A   Overcast
2:53 AM 57.0 °F 54.0 °F 89% 29.69 in 10.0 mi SW 9.2 mph - N/A   Overcast
3:53 AM 57.0 °F 55.0 °F 93% 29.68 in 10.0 mi Calm Calm - N/A   Overcast
4:53 AM 59.0 °F 55.9 °F 90% 29.67 in 10.0 mi Calm Calm - N/A   Overcast
5:04 AM 59.0 °F 55.4 °F 88% 29.69 in 9.0 mi SSW 3.5 mph - N/A   Overcast
5:53 AM 57.9 °F 55.9 °F 93% 29.68 in 9.0 mi South 3.5 mph - N/A   Mostly Cloudy
6:53 AM 59.0 °F 55.9 °F 90% 29.70 in 8.0 mi South 5.8 mph - N/A   Overcast
7:53 AM 60.1 °F 55.9 °F 86% 29.72 in 8.0 mi SSW 6.9 mph - N/A   Mostly Cloudy
8:53 AM 61.0 °F 57.0 °F 87% 29.73 in 10.0 mi SSW 4.6 mph - N/A   Clear
9:53 AM 64.0 °F 57.9 °F 80% 29.71 in 10.0 mi SSW 11.5 mph - N/A   Clear
10:53 AM 66.0 °F 57.9 °F 75% 29.72 in 10.0 mi South 11.5 mph - N/A   Clear
11:21 AM 66.2 °F 57.2 °F 73% 29.74 in 10.0 mi SSW 11.5 mph - N/A   Mostly Cloudy
11:53 AM 68.0 °F 59.0 °F 73% 29.73 in 10.0 mi SW 12.7 mph 20.7 mph N/A   Overcast
12:04 PM 69.8 °F 59.0 °F 68% 29.74 in 10.0 mi SW 12.7 mph - N/A   Overcast
12:35 PM 69.8 °F 60.8 °F 73% 29.74 in 10.0 mi WSW 8.1 mph - N/A   Mostly Cloudy
12:53 PM 70.0 °F 59.0 °F 68% 29.73 in 10.0 mi SW 6.9 mph - N/A   Overcast
1:53 PM 70.0 °F 59.0 °F 68% 29.73 in 10.0 mi South 11.5 mph - N/A   Overcast
2:53 PM 71.1 °F 60.1 °F 68% 29.72 in 10.0 mi South 9.2 mph - N/A   Overcast
3:19 PM 71.6 °F 60.8 °F 69% 29.71 in 10.0 mi South 10.4 mph - N/A   Mostly Cloudy
3:53 PM 71.1 °F 59.0 °F 66% 29.70 in 10.0 mi South 9.2 mph - N/A   Mostly Cloudy
4:53 PM 71.1 °F 59.0 °F 66% 29.69 in 10.0 mi SSE 8.1 mph - N/A   Overcast
5:27 PM 69.8 °F 59.0 °F 68% 29.70 in 10.0 mi SSE 9.2 mph - N/A   Overcast
5:38 PM 69.8 °F 59.0 °F 68% 29.71 in 10.0 mi South 11.5 mph - N/A   Overcast
5:53 PM 70.0 °F 57.9 °F 65% 29.69 in 10.0 mi South 11.5 mph 20.7 mph N/A   Overcast
6:53 PM 69.1 °F 59.0 °F 70% 29.69 in 10.0 mi SSE 9.2 mph - N/A   Overcast
7:53 PM 69.1 °F 59.0 °F 70% 29.70 in 10.0 mi SE 4.6 mph - N/A   Overcast
8:53 PM 66.9 °F 59.0 °F 76% 29.72 in 10.0 mi ESE 5.8 mph - N/A   Overcast
9:53 PM 68.0 °F 57.9 °F 70% 29.74 in 10.0 mi South 10.4 mph - N/A   Overcast
10:53 PM 66.9 °F 57.0 °F 70% 29.74 in 10.0 mi SSE 10.4 mph 16.1 mph N/A   Overcast
11:53 PM 66.9 °F 57.0 °F 70% 29.73 in 10.0 mi SSE 9.2 mph 16.1 mph N/A   Overcast